Regional Weather Roundup
Issued by NWS

Home | Current Version | Previous Version | Graphics & Text | Print | Product List | Glossary On
Versions: 1 2 3 4 5 6 7 8 9 10 11 12 13 14 15 16 17 18 19 20 21 22 23 24 25 26 27 28 29 30 31 32 33 34 35 36 37 38 39 40 41 42 43 44 45 46 47 48 49 50
000
ASUS43 KDMX 020308
RWRIA

WEATHER ROUNDUP FOR IOWA
NATIONAL WEATHER SERVICE DES MOINES IA
1000 PM CDT SUN MAY 01 2016

NOTE: "FAIR" INDICATES FEW OR NO CLOUDS BELOW 12,000 FEET WITH NO
SIGNIFICANT WEATHER AND/OR OBSTRUCTIONS TO VISIBILITY.

* - THESE STATIONS ARE NOT NWS STATIONS...THUS NOT UNDER NWS
QUALITY CONTROL.  THEY ALSO DO NOT REPORT WEATHER SUCH
AS PRECIPITATION OR FOG.

IAZ001>003-012>014-020>022-031>034-043>046-020400-
   NORTHWEST IOWA

CITY           SKY/WX    TMP DP  RH WIND       PRES   REMARKS
CARROLL *      CLOUDY    48  46  93 W6        30.13R
CHEROKEE *     MOCLDY    45  41  87 CALM      30.15R
DENISON *      CLOUDY    48 N/A N/A CALM      30.13S
LE MARS *      PTCLDY    46  43  87 CALM      30.17R
ORANGE CITY *  CLEAR     46  41  81 W3        30.16R
SHELDON *      CLEAR     43  41  93 CALM      30.14R
SIOUX CITY     MOCLDY    48  41  76 NW5       30.17R
SPENCER        CLEAR     45  38  76 NW8       30.13R
STORM LAKE *   CLOUDY    48  43  81 NW7       30.14R
$$

IAZ055>058-069>071-079>083-090>094-020400-
   SOUTHWEST IOWA

CITY           SKY/WX    TMP DP  RH WIND       PRES   REMARKS
ATLANTIC *     CLOUDY    48  45  87 W6        30.14S
AUDUBON *      CLOUDY    48  45  87 CALM      30.15R
CLARINDA *       N/A    N/A N/A N/A MISG        N/A
COUNCIL BLFS * CLOUDY    46  45  93 CALM      30.15S
CRESTON *      CLOUDY    46  45  93 N9        30.12F
HARLAN  *      CLOUDY    46  46 100 W8        30.18S
LAMONI         CLOUDY    46  44  93 N7        30.09S
RED OAK *      CLOUDY   N/A N/A N/A NW7       30.15S
SHENANDOAH *   CLOUDY    48  46  93 N6        30.14F
$$

IAZ047>049-059>061-072>074-084-020400-
   CENTRAL IOWA

CITY           SKY/WX    TMP DP  RH WIND       PRES   REMARKS
AMES           CLOUDY    48  45  89 NE3       30.11R
ANKENY *       CLOUDY    48  48 100 N3        30.11R
BOONE *        CLOUDY    46  45  93 NE3       30.11R
CHARITON *     CLOUDY    46  46 100 W6        30.10R
DES MOINES     CLOUDY    49  45  86 NW3       30.11R
GRINNELL*      CLOUDY    48  45  87 N8        30.09R
KNOXVILLE *    CLOUDY    48  46  93 NW6       30.08R
MARSHALLTOWN   CLOUDY    47  45  93 N7        30.08S
NEWTON *       CLOUDY    48  48 100 N8        30.09R
PELLA *        CLOUDY    48  46  93 N3        30.09S
$$

IAZ004>006-015-016-023>025-035-036-020400-
   NORTH CENTRAL IOWA

CITY           SKY/WX    TMP DP  RH WIND       PRES   REMARKS
ALGONA *       CLOUDY    48  43  81 CALM      30.11S
CLARION *      CLOUDY    46  45  93 NE6       30.11S
ESTHERVILLE    CLEAR     46  40  79 N9        30.11S
FORT DODGE *   CLOUDY    48  41  76 CALM      30.13R
MASON CITY     CLOUDY    44  41  89 CALM      30.11S
FOREST CITY *  CLOUDY    43  43 100 CALM      30.11S
WEBSTER CITY * CLOUDY    45  45 100 E5        30.10R
IOWA FALLS *     N/A     43  41  93 N5        30.11R FOG
$$

IAZ007>011-017>019-026>030-037>042-050>054-066-020400-
   NORTHEAST IOWA

CITY           SKY/WX    TMP DP  RH WIND       PRES   REMARKS
CEDAR RAPIDS   CLOUDY    47  47 100 N8        30.05R
CHARLES CITY * CLOUDY    45  45 100 W3        30.10R
CLINTON *      CLOUDY    49  48  97 N7        30.04R
DECORAH *      PTCLDY    45  45 100 CALM      30.07R FOG
DUBUQUE        CLOUDY    48  44  86 NE10      30.04R
MONTICELLO *   CLOUDY    48  45  87 N7        30.05R
OELWEIN *      CLOUDY    46  45  93 N6        30.08R
WATERLOO       CLOUDY    47  42  83 NE5       30.08R
$$

IAZ064-065-067-068-078-020400-
   EAST CENTRAL IOWA

CITY           SKY/WX    TMP DP  RH WIND       PRES   REMARKS
DAVENPORT      CLOUDY    49  47  93 N7        30.04R
IOWA CITY      CLOUDY    49  47  93 N7        30.07R
MT. PLEASANT * CLOUDY    50  50 100 N8        30.05R
MUSCATINE *    CLOUDY    50  48  93 NW5       30.06R FOG
QUAD CITIES    LGT RAIN  50  47  89 N5        30.03R FOG
$$

IAZ062-063-075>077-085>089-095>099-020400-
   SOUTHEAST IOWA

CITY           SKY/WX    TMP DP  RH WIND       PRES   REMARKS
BURLINGTON     CLOUDY    49  48  97 N9        30.03R
FAIRFIELD *    CLOUDY    48  48 100 N7        30.06R FOG
FORT MADISON * CLOUDY    48  48 100 N7        30.04S
KEOKUK *       CLOUDY    50  48  93 NW6       30.04R
OSKALOOSA *    CLOUDY    46  46 100 N8        30.07S
OTTUMWA        CLOUDY    47  46  97 N8        30.06S
WASHINGTON *   CLOUDY    48  48 100 N9        30.06S FOG
$$

ABBREVIATIONS USED IN REMARKS
   TC - TEMPERATURES IN CELSIUS
  WCI - WIND CHILL INDEX
   HX - HEAT INDEX
  VSB - VISIBILITY
$$





USA.gov is the U.S. government's official web portal to all federal, state and local government web resources and services.